DW5656 Weather Reports


Display with metric or nautical units.
time (UTC)temp
F
wind
direction
speed
MPH
gust
MPH
rain 1hr
in
rain 24hr
in
rain mn
in
humidity
%
barometer
mb
20190117135829 58 333 1.0 3.0 0.00 0.00 0.00 64 1016.5
20190117134929 58 37 2.0 4.0 0.00 0.00 0.00 63 1016.6
20190117134029 58 27 3.0 5.0 0.00 0.00 0.00 64 1016.6
20190117133129 58 42 2.0 7.0 0.00 0.00 0.00 64 1016.7
20190117132229 58 97 2.0 6.0 0.00 0.00 0.00 64 1016.7
20190117131329 57 84 1.0 8.0 0.00 0.00 0.00 65 1016.8
20190117130429 58 32 1.0 3.0 0.00 0.00 0.00 65 1017.0
20190117125529 56 78 1.0 4.0 0.00 0.00 0.00 68 1017.2
20190117124629 55 7 1.0 4.0 0.00 0.00 0.00 68 1017.4
20190117123729 54 350 2.0 4.0 0.00 0.00 0.00 70 1017.5
20190117122829 54 14 2.0 4.0 0.00 0.00 0.00 71 1017.7
20190117121929 53 23 3.0 5.0 0.00 0.00 0.00 71 1017.8
20190117121029 53 25 2.0 5.0 0.00 0.00 0.00 71 1018.0
20190117120129 53 48 2.0 5.0 0.00 0.00 0.00 72 1018.1
20190117115229 53 42 1.0 4.0 0.00 0.00 0.00 71 1018.3
20190117114329 52 60 2.0 4.0 0.00 0.00 0.00 72 1018.4
20190117113429 52 25 2.0 4.0 0.00 0.00 0.00 72 1018.6
20190117112529 52 21 2.0 5.0 0.00 0.00 0.00 73 1018.7
20190117111629 51 358 2.0 4.0 0.00 0.00 0.00 74 1018.8
20190117110729 51 347 2.0 6.0 0.00 0.00 0.00 75 1018.9
20190117105829 50 7 3.0 5.0 0.00 0.00 0.00 76 1019.0
20190117104929 50 18 3.0 6.0 0.00 0.00 0.00 77 1018.8
20190117104029 50 6 3.0 7.0 0.00 0.00 0.00 77 1018.8
20190117103129 49 353 3.0 5.0 0.00 0.00 0.00 78 1018.7
20190117102229 49 337 2.0 5.0 0.00 0.00 0.00 78 1018.7
20190117101329 49 13 2.0 4.0 0.00 0.00 0.00 78 1018.6
20190117100429 49 324 1.0 4.0 0.00 0.00 0.00 78 1018.6
20190117095529 48 7 1.0 3.0 0.00 0.00 0.00 79 1018.4
20190117094629 48 9 3.0 4.0 0.00 0.00 0.00 79 1018.4
20190117093729 48 338 3.0 6.0 0.00 0.00 0.00 79 1018.4
20190117092829 48 24 1.0 5.0 0.00 0.00 0.00 79 1018.2
20190117091929 47 0 0.0 0.0 0.00 0.00 0.00 81 1018.0
20190117091029 47 51 1.0 2.0 0.00 0.00 0.00 81 1018.0
20190117090129 46 2 3.0 6.0 0.00 0.00 0.00 81 1017.9
20190117085229 47 340 2.0 6.0 0.00 0.00 0.00 81 1018.0
20190117084329 46 14 2.0 3.0 0.00 0.00 0.00 81 1017.9
20190117083428 46 35 2.0 4.0 0.00 0.00 0.00 81 1017.8
20190117082528 46 41 2.0 5.0 0.00 0.00 0.00 82 1017.6
20190117081628 46 30 2.0 5.0 0.00 0.00 0.00 82 1017.7
20190117080728 46 40 2.0 3.0 0.00 0.00 0.00 82 1017.6
20190117075828 46 75 2.0 5.0 0.00 0.00 0.00 82 1017.4
20190117074928 46 33 2.0 4.0 0.00 0.00 0.00 82 1017.6
20190117074028 46 30 3.0 7.0 0.00 0.00 0.00 82 1017.4
20190117073129 46 29 3.0 6.0 0.00 0.00 0.00 82 1017.4
20190117072229 46 59 3.0 6.0 0.00 0.00 0.00 81 1017.2
20190117071328 46 67 4.0 7.0 0.00 0.00 0.00 81 1017.2
20190117070428 46 46 4.0 8.0 0.00 0.00 0.00 80 1017.2
20190117065529 47 35 4.0 8.0 0.00 0.00 0.00 79 1017.1
20190117064628 46 18 2.0 5.0 0.00 0.00 0.00 79 1017.0
20190117063728 46 34 2.0 5.0 0.00 0.00 0.00 79 1016.9
20190117062828 46 53 2.0 6.0 0.00 0.00 0.00 80 1016.7
20190117061928 46 59 1.0 5.0 0.00 0.00 0.00 80 1016.7
20190117061028 46 56 2.0 3.0 0.00 0.00 0.00 81 1016.6
20190117060128 46 54 2.0 4.0 0.00 0.00 0.00 81 1016.7
20190117055228 45 40 4.0 5.0 0.00 0.00 0.00 82 1016.7
20190117054328 45 24 4.0 10.0 0.00 0.00 0.00 82 1016.7
20190117053428 46 359 3.0 7.0 0.00 0.00 0.00 82 1016.7
20190117052528 46 346 4.0 7.0 0.00 0.00 0.00 81 1016.7
20190117051628 46 354 2.0 8.0 0.00 0.00 0.00 80 1016.6
20190117050728 46 21 2.0 4.0 0.00 0.00 0.00 81 1016.5
20190117045828 47 56 2.0 5.0 0.00 0.00 0.00 81 1016.3
20190117044928 47 54 1.0 4.0 0.00 0.00 0.00 82 1016.4
20190117044028 47 54 1.0 2.0 0.00 0.00 0.00 82 1016.6
20190117043128 47 57 2.0 4.0 0.00 0.00 0.00 82 1016.6
20190117042228 47 75 2.0 4.0 0.00 0.00 0.00 82 1016.7
20190117041328 47 51 2.0 4.0 0.00 0.00 0.00 83 1016.8
20190117040428 47 19 2.0 4.0 0.00 0.00 0.00 84 1016.8
20190117035528 47 38 2.0 4.0 0.00 0.00 0.00 84 1016.8
20190117034628 47 356 2.0 4.0 0.00 0.00 0.00 84 1016.9
20190117033728 47 352 3.0 4.0 0.00 0.00 0.00 84 1016.9
20190117032828 47 6 3.0 5.0 0.00 0.00 0.00 84 1017.0
20190117031928 48 6 3.0 5.0 0.00 0.00 0.00 84 1017.0
20190117031028 48 2 3.0 5.0 0.00 0.00 0.00 83 1017.2
20190117030128 48 350 2.0 5.0 0.00 0.00 0.00 83 1017.1
20190117025228 48 350 2.0 3.0 0.00 0.00 0.00 82 1017.1
20190117024328 49 359 2.0 4.0 0.00 0.00 0.00 82 1017.0
20190117023428 49 331 2.0 5.0 0.00 0.00 0.00 80 1017.0
20190117022528 50 4 3.0 5.0 0.00 0.00 0.00 80 1017.1
20190117021628 50 26 2.0 4.0 0.00 0.00 0.00 79 1016.9
20190117020728 50 27 2.0 5.0 0.00 0.00 0.00 79 1017.0
20190117015828 50 31 3.0 5.0 0.00 0.00 0.00 79 1017.1
20190117014928 50 31 3.0 7.0 0.00 0.00 0.00 79 1017.0
20190117014028 51 37 2.0 6.0 0.00 0.00 0.00 79 1017.0
20190117013128 51 45 2.0 5.0 0.00 0.00 0.00 78 1016.9
20190117012228 51 46 2.0 4.0 0.00 0.00 0.00 77 1017.1
20190117011328 52 31 2.0 4.0 0.00 0.00 0.00 76 1017.1
20190117010428 52 41 1.0 3.0 0.00 0.00 0.00 76 1017.2
20190117005528 53 0 0.0 0.0 0.00 0.00 0.00 75 1017.2
20190117004628 53 0 0.0 0.0 0.00 0.00 0.00 75 1017.3
20190117003728 53 0 0.0 0.0 0.00 0.00 0.00 75 1017.5
20190117002828 53 0 0.0 0.0 0.00 0.00 0.00 75 1017.4
20190117001928 54 0 0.0 0.0 0.00 0.00 0.00 74 1017.6
20190117001028 54 0 0.0 0.0 0.00 0.00 0.00 74 1017.6
20190117000128 54 0 0.0 0.0 0.00 0.00 0.00 74 1017.7
20190116235228 54 0 0.0 0.0 0.00 0.00 0.00 74 1017.8
20190116234328 54 0 0.0 0.0 0.00 0.00 0.00 74 1017.8
20190116233428 54 0 0.0 0.0 0.00 0.00 0.00 74 1017.8
20190116232528 54 57 0.0 1.0 0.00 0.00 0.00 74 1017.9
20190116231628 54 57 0.0 2.0 0.00 0.00 0.00 74 1017.9
20190116230728 54 54 1.0 2.0 0.00 0.00 0.00 74 1017.9
20190116225828 54 53 1.0 2.0 0.00 0.00 0.00 73 1017.8
20190116224928 54 53 1.0 3.0 0.00 0.00 0.00 73 1017.8
20190116224028 54 45 1.0 3.0 0.00 0.00 0.00 72 1017.9
20190116223128 54 51 2.0 4.0 0.00 0.00 0.00 72 1018.0
20190116222228 54 50 2.0 5.0 0.00 0.00 0.00 72 1018.0
20190116221328 54 31 3.0 7.0 0.00 0.00 0.00 71 1017.9
20190116220428 55 23 3.0 7.0 0.00 0.00 0.00 72 1017.9
20190116215528 55 8 1.0 4.0 0.00 0.00 0.00 72 1017.9
20190116214628 56 0 0.0 0.0 0.00 0.00 0.00 74 1017.8
20190116213728 56 0 0.0 0.0 0.00 0.00 0.00 71 1017.8
20190116212828 56 0 0.0 0.0 0.00 0.00 0.00 70 1017.8
20190116211928 56 0 0.0 0.0 0.00 0.00 0.00 69 1017.7
20190116211028 56 0 0.0 0.0 0.00 0.00 0.00 68 1017.6
20190116210128 56 0 0.0 0.0 0.00 0.00 0.00 68 1017.6
20190116205228 56 0 0.0 0.0 0.00 0.00 0.00 68 1017.6
20190116204328 56 0 0.0 0.0 0.00 0.00 0.00 68 1017.5
20190116203428 57 0 0.0 0.0 0.00 0.00 0.00 67 1017.5
20190116202528 57 0 0.0 0.0 0.00 0.00 0.00 68 1017.5
20190116201628 57 0 0.0 0.0 0.00 0.00 0.00 67 1017.5
20190116200728 57 0 0.0 0.0 0.00 0.00 0.00 67 1017.4
20190116195828 57 0 0.0 0.0 0.00 0.00 0.00 67 1017.4
20190116194928 57 0 0.0 0.0 0.00 0.00 0.00 67 1017.3
20190116194028 57 0 0.0 0.0 0.00 0.00 0.00 66 1017.4
20190116193128 57 236 2.0 3.0 0.00 0.00 0.00 66 1017.3
20190116192228 57 236 1.0 3.0 0.00 0.00 0.00 66 1017.3
20190116191328 57 236 0.0 2.0 0.00 0.00 0.00 66 1017.3
20190116190429 57 0 0.0 0.0 0.00 0.00 0.00 65 1017.3
20190116185528 58 0 0.0 0.0 0.00 0.00 0.00 65 1017.3
20190116184628 58 236 1.0 2.0 0.00 0.00 0.00 64 1017.3
20190116183728 58 236 1.0 3.0 0.00 0.00 0.00 64 1017.3
20190116182828 58 236 0.0 3.0 0.00 0.00 0.00 64 1017.2
20190116181928 58 236 0.0 2.0 0.00 0.00 0.00 64 1017.1
20190116181028 58 236 1.0 2.0 0.00 0.00 0.00 64 1017.1
20190116180128 58 236 1.0 3.0 0.00 0.00 0.00 64 1017.1
20190116175228 58 236 2.0 3.0 0.00 0.00 0.00 64 1017.0
20190116174328 59 234 2.0 4.0 0.00 0.00 0.00 63 1017.0
20190116173429 59 207 1.0 4.0 0.00 0.00 0.00 61 1017.0
20190116172529 60 203 0.0 3.0 0.00 0.00 0.00 61 1016.9
20190116171628 60 0 0.0 0.0 0.00 0.00 0.00 61 1016.8
20190116170728 60 0 0.0 0.0 0.00 0.00 0.00 60 1016.9
20190116165828 60 0 0.0 0.0 0.00 0.00 0.00 60 1016.9
20190116164928 60 0 0.0 0.0 0.00 0.00 0.00 60 1016.8
20190116164028 60 204 2.0 3.0 0.00 0.00 0.00 59 1016.7
20190116163128 61 205 2.0 4.0 0.00 0.00 0.00 58 1016.8
20190116162228 61 205 2.0 4.0 0.00 0.00 0.00 58 1016.7
20190116161328 61 187 1.0 6.0 0.00 0.00 0.00 58 1016.8
20190116160431 62 136 1.0 3.0 0.00 0.00 0.00 59 1016.8
20190116155528 61 139 1.0 4.0 0.00 0.00 0.00 60 1016.9
20190116154628 61 151 1.0 4.0 0.00 0.00 0.00 60 1016.9
20190116153728 61 161 1.0 4.0 0.00 0.00 0.00 60 1016.9
20190116152828 61 244 2.0 4.0 0.00 0.00 0.00 60 1017.0
20190116151928 61 327 1.0 5.0 0.00 0.00 0.00 61 1017.1
20190116151029 61 267 2.0 4.0 0.00 0.00 0.00 61 1017.1
20190116150128 61 270 2.0 6.0 0.00 0.00 0.00 61 1017.1
20190116145228 61 298 2.0 3.0 0.00 0.00 0.00 61 1017.2
20190116144328 61 262 1.0 4.0 0.00 0.00 0.00 61 1017.3
20190116143428 61 242 1.0 3.0 0.00 0.00 0.00 61 1017.3
20190116142528 60 246 1.0 6.0 0.00 0.00 0.00 62 1017.4
20190116141628 61 36 1.0 3.0 0.00 0.00 0.00 62 1017.5
20190116140728 60 205 1.0 4.0 0.00 0.00 0.00 62 1017.5